This is the latest recevied weather packets stored in our database for station/object RN1M-13. If no packets are shown the sender has not sent any weather packets the latest 10 day(s).
| Time | Temp. | Humidity | Pressure | Rain* | Wind** | Luminosity | Snow |
|---|---|---|---|---|---|---|---|
| 1787764919 | 19.44° C | 100% | 1026.5 hPa | - | - | - | - |
| 1787763119 | 20° C | 100% | 1024.3 hPa | - | - | - | - |
| 1787762219 | 20.56° C | 100% | 1023.7 hPa | - | - | - | - |
| 1787761319 | 20° C | 100% | 1023.4 hPa | - | - | - | - |
| 1787760419 | 20° C | 100% | 1023.3 hPa | - | - | - | - |
| 1787759519 | 20.56° C | 100% | 1023.2 hPa | - | - | - | - |
| 1787758619 | 20.56° C | 100% | 1023 hPa | - | - | - | - |
| 1787757719 | 20.56° C | 100% | 1023 hPa | - | - | - | - |
| 1787756819 | 20.56° C | 100% | 1023 hPa | - | - | - | - |
| 1787755921 | 20° C | 100% | 1022.9 hPa | - | - | - | - |
| 1787755025 | 21.11° C | 100% | 1022.7 hPa | - | - | - | - |
| 1787754125 | 21.11° C | 100% | 1022.7 hPa | - | - | - | - |
| 1787753225 | 20.56° C | 100% | 1022.8 hPa | - | - | - | - |
| 1787752325 | 21.11° C | 100% | 1022.7 hPa | - | - | - | - |
| 1787751425 | 20° C | 100% | 1023.3 hPa | - | - | - | - |
| 1787750525 | 20° C | 100% | 1022.9 hPa | - | - | - | - |
| 1787749625 | 20.56° C | 100% | 1022.4 hPa | - | - | - | - |
| 1787748725 | 20.56° C | 100% | 1022.2 hPa | - | - | - | - |
| 1787747825 | 22.22° C | 100% | 1022.2 hPa | - | - | - | - |
| 1787746925 | 21.11° C | 100% | 1022.1 hPa | - | - | - | - |
| 1787746025 | 21.67° C | 100% | 1022.1 hPa | - | - | - | - |
| 1787745127 | 20.56° C | 100% | 1022.4 hPa | - | - | - | - |
| 1787744229 | 22.22° C | 100% | 1022.1 hPa | - | - | - | - |
| 1787743330 | 20.56° C | 100% | 1022.3 hPa | - | - | - | - |
| 1787742429 | 21.67° C | 100% | 1022 hPa | - | - | - | - |
* Rain since midnight (hover to see other rain measurements)
** Current wind speed in m/s (hover to see current wind gust speed)